CW0060 Weather Reports


Display with metric or nautical units.
time (UTC)temp
F
wind
direction
speed
MPH
gust
MPH
rain 1hr
in
rain 24hr
in
rain mn
in
humidity
%
barometer
mb
20260508185706 55 25 2.0 5.0 0.00 0.00 0.00 72 1016.5
20260508185205 55 53 2.0 5.0 0.00 0.00 0.00 72 1016.5
20260508184705 56 46 2.0 4.0 0.00 0.00 0.00 72 1016.5
20260508184205 56 49 3.0 4.0 0.00 0.00 0.00 72 1016.4
20260508183706 56 39 3.0 5.0 0.00 0.00 0.00 73 1016.3
20260508183205 56 53 3.0 5.0 0.00 0.00 0.00 73 1016.4
20260508182705 56 46 3.0 6.0 0.00 0.00 0.00 74 1016.4
20260508182205 56 60 3.0 6.0 0.00 0.00 0.00 74 1016.2
20260508181705 56 53 4.0 5.0 0.00 0.00 0.00 75 1016.2
20260508181205 56 44 3.0 5.0 0.00 0.00 0.00 75 1016.1
20260508180706 56 41 3.0 5.0 0.00 0.00 0.00 74 1016.1
20260508180205 56 37 3.0 5.0 0.00 0.00 0.00 73 1016.0
20260508175706 57 65 3.0 5.0 0.00 0.00 0.00 73 1016.0
20260508175205 57 39 3.0 5.0 0.00 0.00 0.00 72 1015.9
20260508174706 57 37 3.0 5.0 0.00 0.00 0.00 72 1015.9
20260508173705 58 32 4.0 5.0 0.00 0.00 0.00 71 1015.8
20260508173205 58 53 3.0 5.0 0.00 0.00 0.00 71 1015.8
20260508172705 57 55 3.0 5.0 0.00 0.00 0.00 73 1015.9
20260508171705 55 117 3.0 4.0 0.00 0.00 0.00 80 1015.9
20260508171206 55 32 3.0 4.0 0.00 0.00 0.00 79 1015.9
20260508170205 56 69 3.0 5.0 0.00 0.00 0.00 78 1015.9
20260508165707 56 58 3.0 5.0 0.00 0.00 0.00 76 1015.9
20260508164705 56 51 3.0 5.0 0.00 0.00 0.00 74 1015.9
20260508164205 56 70 3.0 5.0 0.00 0.00 0.00 74 1015.9
20260508163708 57 28 3.0 5.0 0.00 0.00 0.00 73 1015.9
20260508163205 57 13 3.0 4.0 0.00 0.00 0.00 72 1015.9
20260508162705 58 46 2.0 5.0 0.00 0.00 0.00 71 1015.9
20260508162208 58 72 2.0 5.0 0.00 0.00 0.00 71 1015.9
20260508161706 58 108 2.0 5.0 0.00 0.00 0.00 69 1016.0
20260508161205 58 46 3.0 5.0 0.00 0.00 0.00 70 1016.0
20260508160705 59 56 3.0 5.0 0.00 0.00 0.00 66 1016.1
20260508160205 59 37 2.0 5.0 0.00 0.00 0.00 67 1016.1
20260508155705 59 77 2.0 5.0 0.00 0.00 0.00 65 1016.0
20260508155205 59 56 2.0 5.0 0.00 0.00 0.00 69 1016.0
20260508154706 59 46 2.0 5.0 0.00 0.00 0.00 62 1016.1
20260508154206 60 32 3.0 5.0 0.00 0.00 0.00 62 1016.1
20260508153205 61 56 2.0 7.0 0.00 0.00 0.00 62 1016.0
20260508152705 61 178 3.0 7.0 0.00 0.00 0.00 64 1016.1
20260508152206 62 106 3.0 8.0 0.00 0.00 0.00 60 1016.0
20260508151705 63 102 4.0 8.0 0.00 0.00 0.00 58 1015.9
20260508151205 63 141 5.0 8.0 0.00 0.00 0.00 59 1016.1
20260508150705 63 60 4.0 8.0 0.00 0.00 0.00 56 1016.1
20260508145205 64 30 4.0 8.0 0.00 0.00 0.00 56 1016.2
20260508144705 64 99 4.0 9.0 0.00 0.00 0.00 55 1016.2
20260508144206 65 47 4.0 9.0 0.00 0.00 0.00 59 1016.3
20260508143705 65 6 4.0 9.0 0.00 0.00 0.00 60 1016.2
20260508143205 64 28 3.0 6.0 0.00 0.00 0.00 60 1016.3
20260508141705 60 37 4.0 9.0 0.00 0.00 0.00 66 1016.3
20260508141206 60 346 3.0 9.0 0.00 0.00 0.00 64 1016.4
20260508140705 60 32 3.0 8.0 0.00 0.00 0.00 63 1016.4
20260508135705 60 123 4.0 7.0 0.00 0.00 0.00 61 1016.6
20260508135206 60 106 3.0 6.0 0.00 0.00 0.00 61 1016.6
20260508134705 60 72 3.0 10.0 0.00 0.00 0.00 62 1016.6
20260508134206 60 135 4.0 10.0 0.00 0.00 0.00 65 1016.6
20260508133705 60 20 3.0 10.0 0.00 0.00 0.00 62 1016.8
20260508133205 60 115 3.0 8.0 0.00 0.00 0.00 61 1016.7
20260508132705 62 58 4.0 9.0 0.00 0.00 0.00 62 1016.7
20260508132205 64 23 4.0 9.0 0.00 0.00 0.00 56 1016.7
20260508131705 65 18 5.0 9.0 0.00 0.00 0.00 58 1016.7
20260508131205 64 35 4.0 8.0 0.00 0.00 0.00 60 1016.7
20260508130206 60 6 3.0 7.0 0.00 0.00 0.00 62 1017.1
20260508125206 60 18 3.0 6.0 0.00 0.00 0.00 66 1017.0
20260508124706 60 49 4.0 6.0 0.00 0.00 0.00 62 1017.0
20260508124206 59 18 3.0 6.0 0.00 0.00 0.00 60 1017.0
20260508123705 59 16 2.0 5.0 0.00 0.00 0.00 60 1017.0
20260508123205 59 104 2.0 7.0 0.00 0.00 0.00 60 1017.1
20260508122705 59 139 2.0 9.0 0.00 0.00 0.00 60 1017.1
20260508122206 60 205 3.0 9.0 0.00 0.00 0.00 59 1017.0
20260508120705 63 42 3.0 7.0 0.00 0.00 0.00 58 1016.8
20260508120205 64 240 3.0 7.0 0.00 0.00 0.00 61 1017.0
20260508115706 63 222 3.0 8.0 0.00 0.00 0.00 63 1017.0
20260508115205 62 75 3.0 8.0 0.00 0.00 0.00 63 1017.0
20260508114705 62 60 3.0 8.0 0.00 0.00 0.00 62 1017.0
20260508114206 61 72 3.0 8.0 0.00 0.00 0.00 63 1017.1
20260508113705 61 243 4.0 9.0 0.00 0.00 0.00 66 1017.1
20260508113205 60 104 4.0 10.0 0.00 0.00 0.00 63 1017.2
20260508112705 61 141 5.0 10.0 0.00 0.00 0.00 62 1017.3
20260508112205 61 178 4.0 10.0 0.00 0.00 0.00 65 1017.3
20260508111705 60 115 4.0 10.0 0.00 0.00 0.00 66 1017.2
20260508111205 60 89 4.0 9.0 0.00 0.00 0.00 65 1017.2
20260508110706 59 187 4.0 9.0 0.00 0.00 0.00 66 1017.3
20260508110204 60 135 4.0 9.0 0.00 0.00 0.00 65 1017.3
20260508105206 60 141 4.0 10.0 0.00 0.00 0.00 66 1017.3
20260508104705 60 131 5.0 10.0 0.00 0.00 0.00 71 1017.3
20260508104205 60 98 5.0 8.0 0.00 0.00 0.00 65 1017.4
20260508103705 60 151 4.0 8.0 0.00 0.00 0.00 69 1017.5
20260508103205 59 156 3.0 7.0 0.00 0.00 0.00 68 1017.4
20260508102705 58 98 2.0 6.0 0.00 0.00 0.00 77 1017.4
20260508102206 56 314 2.0 6.0 0.00 0.00 0.00 75 1017.6
20260508101705 56 328 3.0 6.0 0.00 0.00 0.00 75 1017.6
20260508101205 55 32 2.0 6.0 0.00 0.00 0.00 75 1017.6
20260508100705 56 56 2.0 5.0 0.00 0.00 0.00 75 1017.5
20260508095706 54 15 2.0 6.0 0.00 0.00 0.00 75 1017.7
20260508095205 54 331 3.0 6.0 0.00 0.00 0.00 78 1017.8
20260508094705 54 15 3.0 6.0 0.00 0.00 0.00 79 1017.8
20260508093708 53 57 3.0 6.0 0.00 0.00 0.00 79 1017.8
20260508092706 54 178 3.0 7.0 0.00 0.00 0.00 80 1017.8
20260508092221 54 147 3.0 7.0 0.00 0.00 0.00 82 1017.8
20260508091709 53 63 3.0 6.0 0.00 0.01 0.00 85 1017.8
20260508091206 53 127 3.0 6.0 0.00 0.01 0.00 84 1017.8
20260508090705 52 49 3.0 6.0 0.00 0.01 0.00 85 1017.8
20260508090205 52 327 3.0 5.0 0.00 0.01 0.00 85 1017.8
20260508085704 51 40 3.0 5.0 0.00 0.01 0.00 87 1017.8
20260508084705 51 354 2.0 5.0 0.00 0.01 0.00 87 1017.8
20260508083205 51 75 2.0 5.0 0.00 0.01 0.00 89 1017.8
20260508082705 51 233 2.0 5.0 0.00 0.01 0.00 91 1017.7
20260508082206 50 68 2.0 5.0 0.00 0.01 0.00 92 1017.7
20260508081705 49 139 2.0 5.0 0.00 0.01 0.00 92 1017.8
20260508080705 49 351 2.0 5.0 0.00 0.01 0.00 94 1017.9
20260508075705 48 347 1.0 4.0 0.00 0.01 0.00 94 1017.8
20260508075206 47 53 1.0 3.0 0.00 0.01 0.00 94 1017.9
20260508074206 47 89 1.0 2.0 0.00 0.01 0.00 95 1017.9
20260508073705 47 222 1.0 3.0 0.00 0.01 0.00 95 1018.0
20260508073205 46 290 1.0 3.0 0.00 0.01 0.00 95 1018.0
20260508072206 45 160 1.0 4.0 0.00 0.01 0.00 95 1017.9
20260508071706 45 222 2.0 4.0 0.00 0.01 0.00 95 1018.0
20260508071206 45 250 2.0 4.0 0.00 0.01 0.00 95 1017.9
20260508070705 45 170 2.0 4.0 0.00 0.01 0.00 94 1017.8
20260508065725 44 212 1.0 2.0 0.00 0.01 0.00 94 1017.8
20260508065214 44 46 1.0 3.0 0.00 0.01 0.00 95 1017.8
20260508064705 44 245 2.0 3.0 0.00 0.01 0.00 94 1017.7
20260508064206 44 240 2.0 3.0 0.00 0.01 0.00 94 1017.7
20260508063205 43 258 1.0 3.0 0.00 0.01 0.00 94 1017.6
20260508062705 43 231 1.0 3.0 0.00 0.01 0.00 94 1017.5
20260508062204 43 178 2.0 3.0 0.00 0.01 0.00 93 1017.5
20260508061705 42 197 1.0 3.0 0.00 0.01 0.00 93 1017.5
20260508055705 42 178 1.0 2.0 0.00 0.02 0.00 93 1017.2
20260508055206 42 178 1.0 2.0 0.00 0.02 0.00 93 1017.2
20260508054206 41 89 0.0 2.0 0.00 0.02 0.00 93 1017.2
20260508053706 41 269 1.0 2.0 0.00 0.02 0.00 92 1017.2
20260508053205 41 344 1.0 2.0 0.00 0.02 0.00 93 1017.1
20260508052705 41 9 1.0 2.0 0.00 0.02 0.00 92 1017.2
20260508052205 41 1 1.0 2.0 0.00 0.02 0.00 92 1017.1
20260508051706 41 46 1.0 2.0 0.00 0.02 0.00 92 1017.1
20260508051230 41 56 1.0 2.0 0.00 0.02 0.00 92 1017.1
20260508050205 41 46 1.0 3.0 0.00 0.02 0.00 92 1017.1
20260508045705 41 89 1.0 2.0 0.00 0.02 0.00 92 1017.0
20260508045205 41 151 1.0 2.0 0.00 0.02 0.00 92 1016.8
20260508044705 41 127 1.0 2.0 0.00 0.02 0.00 92 1016.7
20260508044206 41 108 1.0 2.0 0.00 0.02 0.00 92 1016.7
20260508043705 41 178 1.0 2.0 0.00 0.02 0.00 92 1016.7
20260508043205 40 89 1.0 2.0 0.00 0.02 0.00 92 1016.6
20260508042706 40 46 1.0 2.0 0.00 0.02 0.00 92 1016.6
20260508042206 40 121 1.0 2.0 0.00 0.02 0.00 92 1016.6
20260508041705 40 101 1.0 2.0 0.00 0.02 0.00 92 1016.6
20260508040705 40 108 1.0 2.0 0.00 0.02 0.00 92 1016.6
20260508040205 40 135 0.0 2.0 0.00 0.03 0.00 91 1016.5
20260508035705 40 135 0.0 2.0 0.00 0.03 0.00 91 1016.5
20260508035206 40 178 0.0 2.0 0.00 0.03 0.00 91 1016.4
20260508034705 40 135 1.0 2.0 0.00 0.03 0.00 91 1016.4
20260508034206 40 127 1.0 2.0 0.00 0.04 0.00 91 1016.4
20260508033705 40 89 1.0 2.0 0.00 0.04 0.00 91 1016.3
20260508032705 40 20 1.0 2.0 0.00 0.04 0.00 91 1016.2
20260508032205 40 89 1.0 2.0 0.00 0.05 0.00 91 1016.2
20260508031705 40 104 0.0 2.0 0.00 0.05 0.00 91 1016.3
20260508031205 40 63 0.0 2.0 0.00 0.06 0.00 91 1016.2
20260508030705 40 46 1.0 1.0 0.00 0.06 0.00 91 1016.2
20260508030205 40 104 1.0 2.0 0.00 0.06 0.00 91 1016.2
20260508025206 40 63 1.0 2.0 0.00 0.07 0.00 91 1016.1
20260508024705 40 135 0.0 1.0 0.00 0.07 0.00 91 1016.2
20260508024209 40 117 0.0 1.0 0.00 0.07 0.00 91 1016.2
20260508023705 40 314 0.0 1.0 0.00 0.07 0.00 91 1016.3
20260508023205 40 1 0.0 2.0 0.00 0.07 0.00 91 1016.3
20260508022705 41 178 0.0 2.0 0.00 0.07 0.00 91 1016.3
20260508021705 41 151 0.0 2.0 0.00 0.07 0.00 91 1016.3
20260508020705 41 89 0.0 1.0 0.00 0.07 0.00 91 1016.3
20260508020206 41 331 0.0 1.0 0.00 0.07 0.00 91 1016.3
20260508015204 41 28 0.0 2.0 0.00 0.07 0.00 91 1016.3
20260508014705 41 46 1.0 2.0 0.00 0.07 0.00 91 1016.3
20260508014209 41 142 1.0 2.0 0.00 0.07 0.00 91 1016.3
20260508013705 41 151 1.0 2.0 0.00 0.07 0.00 91 1016.2
20260508013206 41 20 0.0 2.0 0.00 0.07 0.00 91 1016.2
20260508012705 42 151 0.0 3.0 0.00 0.07 0.00 91 1016.2
20260508012205 42 46 1.0 3.0 0.00 0.08 0.00 90 1016.1
20260508011705 42 32 2.0 3.0 0.00 0.08 0.00 90 1016.1
20260508011206 42 79 1.0 3.0 0.00 0.08 0.00 90 1016.2
20260508010705 42 53 1.0 3.0 0.00 0.08 0.00 90 1016.3
20260508010206 42 89 1.0 3.0 0.00 0.08 0.00 90 1016.3
20260508005706 42 63 2.0 3.0 0.00 0.08 0.00 90 1016.3
20260508004723 42 63 2.0 3.0 0.00 0.08 0.00 90 1016.5
20260508004206 42 56 1.0 2.0 0.00 0.08 0.00 90 1016.5
20260508002705 43 101 1.0 2.0 0.00 0.08 0.00 90 1016.5
20260508002205 43 63 1.0 2.0 0.00 0.08 0.00 90 1016.5
20260508001705 43 124 1.0 2.0 0.00 0.08 0.00 90 1016.5
20260508001205 43 331 1.0 2.0 0.00 0.09 0.00 90 1016.5
20260508000706 43 151 1.0 2.0 0.00 0.09 0.00 90 1016.5
20260508000205 43 46 0.0 2.0 0.00 0.09 0.09 90 1016.5
20260507235705 43 46 0.0 2.0 0.00 0.10 0.09 89 1016.6
20260507235205 43 269 0.0 1.0 0.00 0.10 0.09 90 1016.5
20260507234705 44 89 0.0 2.0 0.00 0.11 0.09 90 1016.5
20260507234206 44 1 0.0 3.0 0.00 0.11 0.09 89 1016.6
20260507233704 44 46 1.0 3.0 0.00 0.12 0.09 89 1016.5
20260507233205 44 15 2.0 2.0 0.00 0.12 0.09 89 1016.6
20260507232705 44 40 1.0 2.0 0.00 0.13 0.09 89 1016.6
20260507232206 44 89 0.0 2.0 0.00 0.13 0.09 89 1016.8
20260507231705 44 63 0.0 2.0 0.00 0.13 0.09 89 1016.8
20260507231206 45 117 1.0 3.0 0.00 0.13 0.09 89 1016.8
20260507230705 45 46 1.0 3.0 0.00 0.13 0.09 89 1016.7
20260507230205 45 28 1.0 3.0 0.00 0.13 0.09 89 1016.7
20260507225706 45 102 2.0 3.0 0.00 0.13 0.09 89 1016.7
20260507225205 45 46 2.0 4.0 0.00 0.14 0.09 89 1016.7
20260507224705 46 51 2.0 4.0 0.00 0.14 0.09 89 1016.7
20260507224208 46 50 1.0 3.0 0.00 0.15 0.09 89 1016.7
20260507223706 46 108 1.0 2.0 0.00 0.15 0.09 89 1016.7
20260507223206 46 331 1.0 2.0 0.00 0.16 0.09 89 1016.6
20260507222706 46 56 1.0 2.0 0.00 0.17 0.09 89 1016.5
20260507222206 46 68 1.0 2.0 0.00 0.17 0.09 89 1016.6
20260507221705 47 28 1.0 2.0 0.00 0.18 0.09 88 1016.6
20260507221205 47 35 1.0 2.0 0.00 0.19 0.09 88 1016.6
20260507220705 47 89 0.0 1.0 0.00 0.19 0.09 88 1016.5
20260507220205 47 46 0.0 2.0 0.00 0.20 0.09 88 1016.4
20260507215706 47 89 0.0 2.0 0.00 0.20 0.09 88 1016.4
20260507214705 47 89 1.0 2.0 0.00 0.22 0.09 88 1016.3
20260507214206 48 89 1.0 2.0 0.00 0.22 0.09 88 1016.2
20260507213705 48 63 2.0 2.0 0.00 0.22 0.09 88 1016.1
20260507212705 48 72 1.0 2.0 0.00 0.22 0.09 87 1016.1
20260507211705 48 72 0.0 1.0 0.00 0.23 0.09 87 1016.1
20260507211205 48 89 0.0 1.0 0.00 0.23 0.09 87 1016.0
20260507210206 49 20 0.0 2.0 0.00 0.23 0.09 87 1016.1
20260507205706 49 89 0.0 2.0 0.00 0.23 0.09 87 1016.2
20260507205205 49 63 1.0 2.0 0.00 0.23 0.09 86 1016.0
20260507204705 49 1 1.0 2.0 0.00 0.23 0.09 87 1016.0
20260507204206 49 28 0.0 1.0 0.00 0.23 0.09 86 1016.0
20260507203705 49 89 0.0 1.0 0.00 0.23 0.09 86 1015.9
20260507202205 49 46 0.0 2.0 0.00 0.23 0.09 86 1015.9
20260507201705 49 89 0.0 3.0 0.00 0.23 0.09 86 1015.7
20260507201205 49 72 1.0 3.0 0.00 0.24 0.09 86 1015.8
20260507200706 49 63 1.0 3.0 0.00 0.24 0.09 86 1015.7
20260507195705 49 58 1.0 3.0 0.00 0.25 0.09 85 1015.6
20260507195205 50 56 1.0 3.0 0.00 0.25 0.09 85 1015.6
20260507194206 50 63 0.0 1.0 0.00 0.26 0.09 85 1015.5
20260507193705 50 89 0.0 1.0 0.00 0.26 0.09 85 1015.5
20260507193206 50 89 0.0 2.0 0.00 0.26 0.09 85 1015.5
20260507192705 50 89 1.0 2.0 0.00 0.27 0.09 85 1015.5
20260507192207 50 46 1.0 2.0 0.00 0.29 0.09 84 1015.4
20260507191706 50 63 1.0 2.0 0.00 0.31 0.09 84 1015.3
20260507191205 51 46 1.0 2.0 0.00 0.33 0.09 84 1015.3
20260507190705 51 63 1.0 2.0 0.00 0.34 0.09 84 1015.3
20260507190206 51 51 1.0 2.0 0.00 0.34 0.09 84 1015.1